• In Deutschland
  • Länderverzeichnis
  • Für 7 Tage
  • Wassertemperatur
  • Satellitenkarten
  • Wetterkarte
  • Widgets
  • user-avatar
    Anmelden

    Stündliche Wetter Campo Grande

    Heute, 25 Mai, Freitag

    Zeit Temperatur Niederschläge Wind Luftdruck Luftfeuchtigkeit
    00:00 +17°C° 0 mm 2 m/S 713 mmHg 85%
    01:00 +17°C° 0 mm 2 m/S 713 mmHg 87%
    02:00 +16°C° 0 mm 2 m/S 713 mmHg 88%
    03:00 +16°C° 0 mm 2 m/S 713 mmHg 89%
    04:00 +16°C° 0 mm 2 m/S 713 mmHg 90%
    05:00 +16°C° 0 mm 2 m/S 713 mmHg 91%
    06:00 +17°C° 0 mm 2 m/S 714 mmHg 86%
    07:00 +19°C° 0 mm 2 m/S 714 mmHg 80%
    08:00 +20°C° 0 mm 3 m/S 715 mmHg 74%
    09:00 +22°C° 0 mm 3 m/S 715 mmHg 68%
    10:00 +25°C° 0 mm 3 m/S 715 mmHg 61%
    11:00 +27°C° 0 mm 3 m/S 715 mmHg 55%
    12:00 +27°C° 0 mm 2 m/S 714 mmHg 51%
    13:00 +28°C° 0 mm 2 m/S 714 mmHg 47%
    14:00 +29°C° 0 mm 2 m/S 714 mmHg 44%
    15:00 +27°C° 0 mm 2 m/S 713 mmHg 50%
    16:00 +26°C° 0 mm 2 m/S 713 mmHg 56%
    17:00 +24°C° 0 mm 2 m/S 712 mmHg 62%
    18:00 +23°C° 0 mm 2 m/S 712 mmHg 67%
    19:00 +21°C° 0 mm 2 m/S 713 mmHg 73%
    20:00 +19°C° 0 mm 3 m/S 713 mmHg 78%
    21:00 +19°C° 0 mm 3 m/S 713 mmHg 80%
    22:00 +19°C° 0 mm 3 m/S 713 mmHg 83%
    23:00 +18°C° 0 mm 3 m/S 713 mmHg 85%

    Morgen, 26 Mai, Samstag

    Zeit Temperatur Niederschläge Wind Luftdruck Luftfeuchtigkeit
    00:00 +18°C° 0 mm 3 m/S 713 mmHg 86%
    01:00 +18°C° 0 mm 3 m/S 712 mmHg 86%
    02:00 +18°C° 0 mm 3 m/S 712 mmHg 87%
    03:00 +17°C° 0 mm 3 m/S 712 mmHg 88%
    04:00 +17°C° 0 mm 3 m/S 712 mmHg 89%
    05:00 +17°C° 0 mm 3 m/S 712 mmHg 89%
    06:00 +18°C° 0 mm 3 m/S 713 mmHg 84%
    07:00 +20°C° 0 mm 4 m/S 713 mmHg 79%
    08:00 +21°C° 0 mm 4 m/S 714 mmHg 74%
    09:00 +23°C° 0 mm 4 m/S 714 mmHg 67%
    10:00 +26°C° 0 mm 4 m/S 714 mmHg 60%
    11:00 +28°C° 0 mm 4 m/S 714 mmHg 54%
    12:00 +29°C° 0 mm 4 m/S 713 mmHg 50%
    13:00 +29°C° 0 mm 4 m/S 713 mmHg 47%
    14:00 +30°C° 0 mm 3 m/S 712 mmHg 44%
    15:00 +29°C° 0 mm 3 m/S 712 mmHg 49%
    16:00 +27°C° 0 mm 2 m/S 712 mmHg 54%
    17:00 +25°C° 0 mm 2 m/S 711 mmHg 59%
    18:00 +24°C° 0 mm 2 m/S 712 mmHg 62%
    19:00 +23°C° 0 mm 2 m/S 712 mmHg 64%
    20:00 +21°C° 0 mm 3 m/S 712 mmHg 67%
    21:00 +21°C° 0 mm 3 m/S 712 mmHg 69%
    22:00 +21°C° 0 mm 3 m/S 712 mmHg 71%
    23:00 +21°C° 0 mm 4 m/S 712 mmHg 73%

    übermorgen, 27 Mai, Sonntag

    Zeit Temperatur Niederschläge Wind Luftdruck Luftfeuchtigkeit
    00:00 +20°C° 0 mm 3 m/S 712 mmHg 76%
    01:00 +20°C° 0 mm 3 m/S 712 mmHg 78%
    02:00 +19°C° 0 mm 3 m/S 712 mmHg 81%
    03:00 +19°C° 0 mm 3 m/S 712 mmHg 82%
    04:00 +19°C° 0 mm 3 m/S 712 mmHg 84%
    05:00 +18°C° 0 mm 3 m/S 713 mmHg 85%
    06:00 +19°C° 0 mm 4 m/S 713 mmHg 80%
    07:00 +21°C° 0 mm 4 m/S 714 mmHg 76%
    08:00 +22°C° 0 mm 5 m/S 715 mmHg 71%
    09:00 +23°C° 0 mm 5 m/S 715 mmHg 64%
    10:00 +26°C° 0 mm 5 m/S 716 mmHg 58%
    11:00 +28°C° 0 mm 5 m/S 716 mmHg 51%
    12:00 +28°C° 0 mm 5 m/S 715 mmHg 48%
    13:00 +29°C° 0 mm 4 m/S 715 mmHg 45%
    14:00 +29°C° 0 mm 4 m/S 714 mmHg 41%
    15:00 +28°C° 0 mm 4 m/S 714 mmHg 46%
    16:00 +26°C° 0 mm 3 m/S 713 mmHg 52%
    17:00 +24°C° 0 mm 2 m/S 713 mmHg 57%
    18:00 +22°C° 0 mm 3 m/S 713 mmHg 59%
    19:00 +21°C° 0 mm 3 m/S 714 mmHg 60%
    20:00 +20°C° 0 mm 3 m/S 714 mmHg 62%
    21:00 +20°C° 0 mm 3 m/S 714 mmHg 65%
    22:00 +19°C° 0 mm 3 m/S 714 mmHg 68%
    23:00 +19°C° 0 mm 3 m/S 714 mmHg 71%

    28 Mai, Montag

    Zeit Temperatur Niederschläge Wind Luftdruck Luftfeuchtigkeit
    00:00 +18°C° 0 mm 3 m/S 714 mmHg 74%
    01:00 +18°C° 0 mm 3 m/S 714 mmHg 77%
    02:00 +18°C° 0 mm 3 m/S 713 mmHg 79%
    03:00 +17°C° 0 mm 3 m/S 713 mmHg 80%
    04:00 +17°C° 0 mm 3 m/S 713 mmHg 80%
    05:00 +17°C° 0 mm 4 m/S 713 mmHg 81%
    06:00 +18°C° 0 mm 4 m/S 714 mmHg 77%
    07:00 +20°C° 0 mm 5 m/S 714 mmHg 73%
    08:00 +21°C° 0 mm 6 m/S 715 mmHg 69%
    09:00 +22°C° 0 mm 6 m/S 715 mmHg 62%
    10:00 +24°C° 0 mm 6 m/S 715 mmHg 56%
    11:00 +27°C° 0 mm 6 m/S 715 mmHg 50%
    12:00 +28°C° 0 mm 5 m/S 714 mmHg 48%
    13:00 +28°C° 0 mm 5 m/S 714 mmHg 45%
    14:00 +29°C° 0 mm 4 m/S 713 mmHg 42%
    15:00 +27°C° 0 mm 4 m/S 713 mmHg 47%
    16:00 +26°C° 0 mm 3 m/S 712 mmHg 52%
    17:00 +24°C° 0 mm 2 m/S 712 mmHg 58%
    18:00 +22°C° 0 mm 3 m/S 712 mmHg 59%
    19:00 +22°C° 0 mm 3 m/S 712 mmHg 61%
    20:00 +21°C° 0 mm 3 m/S 713 mmHg 63%
    21:00 +21°C° 0 mm 4 m/S 713 mmHg 65%
    22:00 +20°C° 0 mm 4 m/S 713 mmHg 67%
    23:00 +20°C° 0 mm 5 m/S 713 mmHg 69%

    29 Mai, Dienstag

    Zeit Temperatur Niederschläge Wind Luftdruck Luftfeuchtigkeit
    00:00 +20°C° 0 mm 4 m/S 713 mmHg 71%
    01:00 +19°C° 0 mm 4 m/S 712 mmHg 72%
    02:00 +19°C° 0 mm 4 m/S 712 mmHg 74%
    03:00 +19°C° 0 mm 4 m/S 712 mmHg 75%
    04:00 +18°C° 0 mm 4 m/S 712 mmHg 76%
    05:00 +18°C° 0 mm 4 m/S 712 mmHg 77%
    06:00 +19°C° 0 mm 5 m/S 713 mmHg 73%
    07:00 +20°C° 0 mm 5 m/S 713 mmHg 70%
    08:00 +21°C° 0 mm 6 m/S 714 mmHg 67%
    09:00 +23°C° 0 mm 6 m/S 714 mmHg 60%
    10:00 +26°C° 0 mm 6 m/S 714 mmHg 54%
    11:00 +28°C° 0 mm 6 m/S 714 mmHg 47%
    12:00 +28°C° 0 mm 5 m/S 713 mmHg 46%
    13:00 +29°C° 0 mm 5 m/S 712 mmHg 44%
    14:00 +29°C° 0 mm 4 m/S 712 mmHg 42%
    15:00 +28°C° 0 mm 4 m/S 711 mmHg 46%
    16:00 +26°C° 0 mm 3 m/S 711 mmHg 50%
    17:00 +25°C° 0 mm 2 m/S 711 mmHg 54%
    18:00 +24°C° 0 mm 2 m/S 711 mmHg 57%
    19:00 +22°C° 0 mm 3 m/S 711 mmHg 59%
    20:00 +21°C° 0 mm 3 m/S 711 mmHg 62%
    21:00 +21°C° 0 mm 3 m/S 712 mmHg 65%
    22:00 +21°C° 0 mm 4 m/S 712 mmHg 68%
    23:00 +20°C° 0 mm 4 m/S 712 mmHg 70%

    30 Mai, Mittwoch

    Zeit Temperatur Niederschläge Wind Luftdruck Luftfeuchtigkeit
    00:00 +20°C° 0 mm 4 m/S 711 mmHg 73%
    01:00 +20°C° 0 mm 4 m/S 711 mmHg 75%
    02:00 +19°C° 0 mm 4 m/S 711 mmHg 77%
    03:00 +19°C° 0 mm 4 m/S 711 mmHg 77%
    04:00 +19°C° 0 mm 4 m/S 711 mmHg 77%
    05:00 +19°C° 0 mm 4 m/S 711 mmHg 77%
    06:00 +20°C° 0 mm 4 m/S 712 mmHg 73%
    07:00 +21°C° 0 mm 5 m/S 712 mmHg 69%
    08:00 +22°C° 0 mm 5 m/S 713 mmHg 66%
    09:00 +25°C° 0 mm 5 m/S 713 mmHg 59%
    10:00 +27°C° 0 mm 5 m/S 713 mmHg 52%
    11:00 +29°C° 0 mm 5 m/S 713 mmHg 45%
    12:00 +28°C° 0 mm 4 m/S 713 mmHg 46%
    13:00 +28°C° 0 mm 3 m/S 712 mmHg 47%
    14:00 +28°C° 0 mm 2 m/S 711 mmHg 48%
    15:00 +27°C° 0 mm 2 m/S 711 mmHg 51%
    16:00 +26°C° 0 mm 2 m/S 711 mmHg 53%
    17:00 +25°C° 0 mm 1 m/S 711 mmHg 55%
    18:00 +24°C° 0 mm 2 m/S 711 mmHg 57%
    19:00 +24°C° 0 mm 2 m/S 711 mmHg 58%
    20:00 +23°C° 0 mm 2 m/S 711 mmHg 59%
    21:00 +21°C° 0 mm 2 m/S 711 mmHg 61%
    22:00 +21°C° 0 mm 2 m/S 711 mmHg 63%
    23:00 +20°C° 0 mm 2 m/S 711 mmHg 65%
    Mehr zeigen